[[{"header":{"parameterUnit":"m.s-1","parameterCategory":1,"la1":30.2991,"la2":30.254,"lo1":-89.0895,"lo2":-89.0444,"dy":0.0017,"dx":0.0017,"nx":28,"ny":28,"refTime":"2023-10-02T21:00:00:Z","depth":0,"parameterNumber":2,"parameterNumberName":"U-component_of_WINDS"},"data":[0,0,0,0,0,0,0,0,0,0,0,0,0,0,0,0,0,0,0,0,0,0,0,0,0,0,0,0,0,0,0,0,0,0,0,0,0,0,0,0,0,0,0,0,0,0,0,0,0,0,0,0,0,0,0,0,0,0,-4.3885,-4.3884,0,-4.3843,-4.3843,-4.3843,-4.3723,-4.372,-4.3718,-4.3715,-4.3675,-4.3676,-4.3678,0,0,0,0,0,0,0,0,0,0,0,0,0,-4.3864,-4.3865,-4.3885,-4.3884,-4.3884,-4.3844,-4.3843,-4.3842,-4.3723,-4.372,-4.3717,-4.3714,-4.3675,-4.3676,-4.3678,0,0,0,0,0,0,0,0,0,0,0,0,0,-4.3853,-4.3865,-4.3885,-4.3819,-4.3813,-4.3844,-4.3843,-4.3842,-4.3724,-4.372,-4.3716,-4.3713,-4.3674,-4.3676,-4.3678,-4.3769,0,0,-4.3684,-4.3685,0,0,0,0,0,0,0,0,-4.3854,-4.3854,-4.383,-4.3824,-4.3817,-4.3784,-4.3821,-4.3818,-4.3725,-4.3758,-4.3715,-4.3711,-4.3715,-4.3713,-4.3714,-4.3767,-4.3766,-4.3684,-4.3686,-4.3687,-4.3687,0,0,0,0,0,0,0,-4.3855,-4.3855,-4.3868,-4.3829,-4.3822,-4.3793,-4.3787,-4.382,-4.3759,-4.3755,-4.3746,-4.3743,-4.371,-4.3712,-4.3712,-4.3765,-4.3684,-4.3686,-4.3688,-4.3688,-4.3892,-4.3896,0,0,0,0,0,0,-4.3864,-4.3856,-4.387,-4.3867,-4.3826,-4.3797,-4.379,-4.3799,-4.3758,-4.3748,-4.3746,-4.3737,-4.3711,-4.371,-4.371,-4.3814,-4.3687,-4.3689,-4.369,-4.3888,-4.3893,-4.3898,0,0,0,0,0,0,-4.3864,-4.3867,-4.3871,-4.3859,-4.3858,-4.3801,-4.3812,-4.38,-4.3802,-4.3752,-4.374,-4.3759,-4.3708,-4.3707,-4.3756,-4.3811,-4.3689,-4.3691,-4.3883,-4.389,-4.3896,-4.4024,0,0,0,0,0,0,-4.3864,-4.3867,-4.39,-4.3861,-4.3859,-4.3917,-4.3815,-4.3802,-4.3805,-4.3793,-4.3761,-4.3751,-4.3705,-4.3753,-4.3758,-4.3812,-4.3693,-4.3878,-4.3886,-4.3894,-4.4014,-4.4033,-4.405,0,0,0,0,0,-4.3864,-4.3938,-4.3903,-4.3905,-4.3899,-4.392,-4.3919,-4.3863,-4.381,-4.3843,-4.3812,-4.3752,-4.3805,-4.3759,-4.3763,-4.3819,-4.3874,-4.3884,-4.3893,-4.4006,-4.403,-4.405,0,0,0,0,0,0,-4.3985,-4.3932,-4.3892,-4.3955,-4.3943,-4.39,-4.3939,-4.3889,-4.3892,-4.3881,-4.3812,-4.3806,-4.3864,-4.3846,-4.3796,-4.3906,-4.383,-4.3841,-4.3915,-4.3937,-4.3954,-4.3956,-4.3695,0,0,0,0,0,-4.402,-4.404,-4.3993,-4.4053,-4.4049,-4.3996,-4.4003,-4.3961,-4.3946,-4.3941,-4.3912,-4.3901,-4.3914,-4.3925,-4.3935,-4.4012,-4.4003,-4.4053,-4.4071,-4.4086,-4.4095,-4.4135,-4.4157,-4.3929,-4.3929,-4.3929,0,0,-4.409,-4.4063,-4.408,-4.4077,-4.4063,-4.4087,-4.3992,-4.4021,-4.4039,-4.3945,-4.3988,-4.3968,-4.3951,-4.4014,-4.404,-4.4001,-4.4157,-4.4098,-4.411,-4.4111,-4.4147,-4.4169,-4.4188,-4.3935,-4.3934,-4.3933,0,0,-4.423,-4.4213,-4.4261,-4.4249,-4.4229,-4.4194,-4.4206,-4.4171,-4.4153,-4.4196,-4.4127,-4.4147,-4.4173,-4.4163,-4.4162,-4.4303,-4.4249,-4.4309,-4.4402,-4.4442,-4.446,-4.4475,-4.4525,-4.4544,-4.4319,-4.4319,-4.4319,0,-4.432,-4.4352,-4.4293,-4.4327,-4.4328,-4.4245,-4.4294,-4.4286,-4.4271,-4.4274,-4.4231,-4.4262,-4.4244,-4.4304,-4.4339,-4.4341,-4.4353,-4.431,-4.4462,-4.4477,-4.449,-4.4537,-4.4556,-4.4326,-4.4325,-4.4325,-4.4324,0,-4.4465,-4.4489,-4.4531,-4.4518,-4.4524,-4.4566,-4.4514,-4.4527,-4.4487,-4.4456,-4.4502,-4.4479,-4.4483,-4.4495,-4.4455,-4.455,-4.4526,-4.4474,-4.4396,-4.452,-4.4563,-4.4581,-4.4337,-4.4334,-4.4332,-4.433,0,0,-4.4676,-4.4632,-4.4648,-4.4642,-4.4616,-4.4633,-4.4673,-4.4677,-4.469,-4.4684,-4.4715,-4.474,-4.4692,-4.4691,-4.4649,-4.4685,-4.4798,-4.4628,-4.4626,-4.466,-4.4902,-4.4941,-4.4963,-4.4764,-4.4767,-4.4769,-4.4904,0,-4.4808,-4.4871,-4.482,-4.4893,-4.4915,-4.4839,-4.4873,-4.4862,-4.4836,-4.4851,-4.4823,-4.4841,-4.4776,-4.4775,-4.4807,-4.4778,-4.4846,-4.4768,-4.4792,-4.4794,-4.4797,-4.4985,-4.5025,-4.5153,-4.492,-4.4923,-4.4925,0,-4.4969,-4.497,-4.5045,-4.5016,-4.5023,-4.5055,-4.5055,-4.5072,-4.5058,-4.5036,-4.5037,-4.4987,-4.5025,-4.4951,-4.5002,-4.495,-4.4958,-4.4946,-4.4949,-4.4948,-4.4865,-4.4987,-4.5192,-4.5211,-4.4951,-4.4949,-4.4947,0,-4.5115,-4.5136,-4.5183,-4.5181,-4.5147,-4.5172,-4.5159,-4.5142,-4.5148,-4.515,-4.5153,-4.516,-4.5163,-4.517,-4.5124,-4.5074,-4.5182,-4.5103,-4.5165,-4.5166,-4.5189,-4.5187,-4.5396,-4.5197,-4.5197,-4.5197,-4.5196,0,-4.5266,-4.5315,-4.5248,-4.5278,-4.5331,-4.5273,-4.5328,-4.5308,-4.5294,-4.5318,-4.5254,-4.5279,-4.5217,-4.5236,-4.5201,-4.5249,-4.5252,-4.5236,-4.5225,-4.524,-4.5242,-4.5243,-4.5232,-4.5202,-4.52,-4.5199,-4.5199,0,-4.5436,-4.5394,-4.5441,-4.5407,-4.54,-4.544,-4.5411,-4.5438,-4.5409,-4.5442,-4.5446,-4.5401,-4.542,-4.5376,-4.5389,-4.5365,-4.5434,-4.541,-4.5438,-4.543,-4.5494,-4.5488,-4.5709,-4.5735,-4.5521,-4.5523,-4.5525,0,-4.5534,-4.557,-4.5541,-4.5553,-4.5544,-4.5564,-4.5571,-4.5517,-4.5527,-4.5516,-4.5544,-4.5558,-4.5566,-4.5601,-4.557,-4.558,-4.5555,-4.5632,-4.5556,-4.5571,-4.5555,-4.5553,-4.5556,-4.5647,-4.565,-4.5652,-4.5654,0,-4.5713,-4.5691,-4.5702,-4.5708,-4.5718,-4.572,-4.5717,-4.5731,-4.5674,-4.5689,-4.5708,-4.5715,-4.5729,-4.5744,-4.5748,-4.5736,-4.5686,-4.5678,-4.5693,-4.5707,-4.5722,-4.5714,-4.5479,-4.5673,-4.5671,-4.5669,-4.5668,-4.5668,-4.5848,-4.5877,-4.5862,-4.5878,-4.5871,-4.5871,-4.5894,-4.5869,-4.5884,-4.5891,-4.5859,-4.5886,-4.5873,-4.5873,-4.5867,-4.5888,-4.5853,-4.5874,-4.5879,-4.5885,-4.5895,-4.5721,-4.5888,-4.5888,-4.5887,-4.5887,-4.5886,0,-4.6022,-4.6009,-4.6025,-4.6024,-4.6038,-4.5991,-4.5986,-4.6,-4.6025,-4.6017,-4.6027,-4.6051,-4.6066,-4.6037,-4.6048,-4.607,-4.6048,-4.6075,-4.6072,-4.607,-4.5926,-4.5911,-4.6093,-4.6093,-4.6093,-4.6093,-4.6093,-4.6093,-4.6114,-4.6161,-4.6138,-4.6181,-4.6168,-4.6193,-4.6195,-4.6195,-4.6189,-4.6218,-4.623,-4.6212,-4.6196,-4.6206,-4.6219,-4.621,-4.6216,-4.6251,-4.6235,-4.61,-4.608,-4.606,-4.6047,-4.6254,-4.6254,-4.6377,-4.6378,-4.6379]},{"header":{"parameterUnit":"m.s-1","parameterCategory":1,"la1":30.2991,"la2":30.254,"lo1":-89.0895,"lo2":-89.0444,"dy":0.0017,"dx":0.0017,"nx":28,"ny":28,"refTime":"2023-10-02T21:00:00:Z","depth":0,"parameterNumber":3,"parameterNumberName":"V-component_of_WINDS"},"data":[0,0,0,0,0,0,0,0,0,0,0,0,0,0,0,0,0,0,0,0,0,0,0,0,0,0,0,0,0,0,0,0,0,0,0,0,0,0,0,0,0,0,0,0,0,0,0,0,0,0,0,0,0,0,0,0,0,0,1.0914,1.0914,0,1.0924,1.0924,1.0924,1.0977,1.0978,1.0979,1.0981,1.0985,1.0984,1.0983,0,0,0,0,0,0,0,0,0,0,0,0,0,1.0938,1.0937,1.0914,1.0914,1.0914,1.0924,1.0924,1.0924,1.0977,1.0978,1.098,1.0981,1.0986,1.0985,1.0983,0,0,0,0,0,0,0,0,0,0,0,0,0,1.0935,1.0937,1.0914,1.0942,1.0944,1.0924,1.0924,1.0924,1.0976,1.0978,1.098,1.0982,1.0986,1.0985,1.0983,1.0935,0,0,1.0978,1.0978,0,0,0,0,0,0,0,0,1.0935,1.0934,1.0938,1.094,1.0943,1.0951,1.0934,1.0927,1.0976,1.0964,1.0981,1.0983,1.0972,1.0972,1.0969,1.0935,1.0935,1.0978,1.0977,1.0976,1.0976,0,0,0,0,0,0,0,1.0936,1.0934,1.0918,1.0938,1.0941,1.0953,1.0954,1.0933,1.0957,1.0965,1.0969,1.097,1.0974,1.0971,1.097,1.0935,1.0978,1.0977,1.0976,1.0975,1.0862,1.086,0,0,0,0,0,0,1.0932,1.0934,1.0917,1.0918,1.0944,1.0951,1.0953,1.0946,1.0957,1.0961,1.0968,1.0972,1.0972,1.0972,1.097,1.0914,1.0976,1.0975,1.0974,1.0864,1.0862,1.0859,0,0,0,0,0,0,1.0933,1.093,1.0917,1.0927,1.0926,1.0948,1.0941,1.0946,1.0942,1.096,1.0964,1.0961,1.0974,1.0972,1.0944,1.0915,1.0974,1.0973,1.0866,1.0863,1.086,1.0801,0,0,0,0,0,0,1.0933,1.093,1.0913,1.0926,1.0926,1.0891,1.0939,1.0944,1.094,1.0945,1.0954,1.0957,1.0975,1.0946,1.0942,1.0914,1.0972,1.0869,1.0865,1.0861,1.0805,1.0796,1.0788,0,0,0,0,0,1.0934,1.0894,1.0911,1.0909,1.0904,1.0889,1.0889,1.0912,1.0938,1.0919,1.0931,1.0957,1.0919,1.0942,1.0939,1.0909,1.0871,1.0866,1.0862,1.0809,1.0798,1.0788,0,0,0,0,0,0,1.0874,1.0896,1.0916,1.088,1.0882,1.0898,1.0876,1.0899,1.0893,1.0898,1.0927,1.0928,1.0895,1.09,1.0925,1.0863,1.0899,1.0894,1.0861,1.085,1.0842,1.084,1.097,0,0,0,0,0,1.0858,1.0845,1.0864,1.0831,1.0831,1.0853,1.0848,1.0866,1.0869,1.087,1.0879,1.088,1.0868,1.086,1.085,1.0807,1.0809,1.0785,1.0777,1.077,1.0764,1.0741,1.073,1.0844,1.0844,1.0844,0,0,1.0821,1.0832,1.0822,1.0819,1.0823,1.0808,1.0854,1.0836,1.0824,1.0867,1.084,1.0847,1.085,1.0814,1.0798,1.0817,1.0733,1.0764,1.0758,1.0756,1.0735,1.0724,1.0715,1.0841,1.0842,1.0842,0,0,1.0748,1.0755,1.0728,1.0732,1.0739,1.0754,1.0747,1.076,1.0767,1.0742,1.0773,1.076,1.0739,1.074,1.0738,1.0667,1.069,1.0663,1.0617,1.0594,1.0585,1.0577,1.0551,1.0541,1.0658,1.0658,1.0658,0,1.0701,1.0681,1.071,1.0691,1.0688,1.0729,1.07,1.0702,1.0705,1.0701,1.0723,1.0699,1.0704,1.0668,1.0651,1.0649,1.0641,1.0661,1.0585,1.0577,1.057,1.0545,1.0535,1.0654,1.0655,1.0655,1.0655,0,1.0623,1.0609,1.0586,1.0589,1.0585,1.0561,1.0585,1.0577,1.0596,1.0609,1.0582,1.059,1.0583,1.0577,1.0594,1.0543,1.0555,1.058,1.0616,1.0555,1.0532,1.0523,1.0649,1.065,1.0652,1.0652,0,0,1.0509,1.0532,1.0522,1.0525,1.0536,1.0525,1.0503,1.0498,1.0489,1.049,1.0471,1.0455,1.0479,1.0476,1.0495,1.0475,1.0418,1.0503,1.0504,1.0486,1.0361,1.034,1.0329,1.0434,1.0433,1.0431,1.036,0,1.0438,1.0403,1.0429,1.0389,1.0375,1.0415,1.0396,1.04,1.0412,1.0401,1.0415,1.0402,1.0435,1.0434,1.0417,1.0428,1.0393,1.0434,1.0415,1.0414,1.0411,1.0317,1.0295,1.0227,1.0352,1.035,1.0349,0,1.0349,1.0348,1.0306,1.0322,1.0317,1.0299,1.0297,1.0287,1.0293,1.0303,1.0302,1.0326,1.0304,1.0343,1.0313,1.034,1.0335,1.034,1.0338,1.0335,1.0376,1.031,1.0206,1.0195,1.0335,1.0336,1.0337,0,1.0268,1.0257,1.0231,1.0231,1.0249,1.0235,1.0242,1.025,1.0245,1.0243,1.024,1.0235,1.0232,1.0227,1.0249,1.0275,1.0216,1.0256,1.0222,1.0221,1.0205,1.0206,1.0097,1.0205,1.0205,1.0205,1.0206,0,1.0184,1.0157,1.0195,1.0178,1.0149,1.018,1.0149,1.016,1.0167,1.0152,1.0186,1.0172,1.0203,1.0191,1.0208,1.018,1.0179,1.0185,1.019,1.0181,1.018,1.0176,1.018,1.0203,1.0203,1.0204,1.0204,0,1.0088,1.0112,1.0086,1.0106,1.011,1.0087,1.0103,1.0088,1.0104,1.0085,1.0083,1.0106,1.0094,1.0117,1.0107,1.0119,1.008,1.0092,1.0078,1.0081,1.0045,1.0048,0.9929,0.9914,1.0033,1.0032,1.0031,0,1.0031,1.0012,1.003,1.0024,1.0029,1.0018,1.0014,1.0044,1.0039,1.0045,1.0029,1.0021,1.0015,0.9994,1.001,1.0003,1.0014,0.9974,1.0013,1.0005,1.0012,1.0012,1.001,0.9964,0.9963,0.9962,0.9961,0,0.9928,0.9942,0.9936,0.9934,0.993,0.9929,0.9931,0.9924,0.9956,0.9948,0.9938,0.9934,0.9926,0.9916,0.9913,0.9919,0.9944,0.9949,0.994,0.993,0.9922,0.9924,1.0053,0.995,0.9951,0.9952,0.9953,0.9953,0.9849,0.9833,0.9844,0.9837,0.9842,0.9844,0.9831,0.9846,0.9838,0.9835,0.9853,0.9838,0.9845,0.9845,0.9848,0.9836,0.9854,0.9842,0.9838,0.9834,0.9828,0.9926,0.9835,0.9836,0.9836,0.9836,0.9837,0,0.9747,0.9756,0.9749,0.9752,0.9746,0.9774,0.9778,0.977,0.9757,0.9763,0.9758,0.9745,0.9737,0.9753,0.9747,0.9734,0.9746,0.9732,0.9732,0.9732,0.9813,0.982,0.9722,0.9722,0.9722,0.9722,0.9722,0.9722,0.9692,0.9667,0.9682,0.966,0.967,0.9657,0.9657,0.9658,0.9663,0.9648,0.9642,0.9654,0.9663,0.9658,0.9651,0.9656,0.9652,0.9633,0.9641,0.9716,0.9727,0.9737,0.9744,0.9632,0.9632,0.9562,0.9561,0.9561]}]]